Location: Muenchen
(48.1800°N, 11.5800°E)
Time: 22:22:53
(UTC+02:00)

ISS - Visible Passes

Search period start: 29 September 2016 00:00
Search period end: 09 October 2016 00:00
Orbit: 400 x 409 km, 51.6° (Epoch: 30 September)

Date Brightness Start Highest point End Pass type
(mag) Time Alt. Az. Time Alt. Az. Time Alt. Az.
29 Sep -1.1 19:42:09 10° SSE 19:43:08 11° SE 19:43:56 10° ESE visible
29 Sep -0.8 21:15:50 10° SW 21:16:37 16° SW 21:16:37 16° SW visible
30 Sep -2.7 20:23:58 10° SW 20:26:59 36° SE 20:27:02 36° SE visible
01 Oct -1.9 19:32:21 10° SSW 19:34:58 22° SE 19:37:17 12° E visible
01 Oct -1.9 21:07:55 10° WSW 21:09:57 35° WSW 21:09:57 35° WSW visible
02 Oct -3.4 20:15:46 10° WSW 20:19:00 69° SSE 20:20:03 38° E visible
02 Oct 0.1 21:52:27 10° W 21:52:43 12° W 21:52:43 12° W visible
03 Oct -2.8 19:23:46 10° SW 19:26:52 43° SSE 19:29:59 10° ENE visible
03 Oct -2.2 21:00:07 10° W 21:02:42 44° WNW 21:02:42 44° WNW visible
04 Oct -3.2 20:07:49 10° WSW 20:11:04 71° NNW 20:12:36 28° ENE visible
04 Oct -0.1 21:44:41 10° WNW 21:45:15 14° WNW 21:45:15 14° WNW visible
05 Oct -3.3 19:15:35 10° WSW 19:18:50 81° SSE 19:22:06 10° ENE visible
05 Oct -2.2 20:52:21 10° W 20:55:05 41° NNW 20:55:05 41° NNW visible
06 Oct -2.7 19:59:58 10° W 20:03:10 50° NNW 20:04:52 24° NE visible
06 Oct -0.2 21:36:48 10° WNW 21:37:31 15° WNW 21:37:31 15° WNW visible
07 Oct -3.0 19:07:37 10° W 19:10:52 64° NNW 19:14:07 10° ENE visible
07 Oct -2.3 20:44:30 10° WNW 20:47:15 41° NNW 20:47:15 41° NNW visible
08 Oct -2.5 19:52:08 10° WNW 19:55:16 43° N 19:56:58 22° ENE visible
08 Oct -0.3 21:28:48 10° WNW 21:29:37 16° WNW 21:29:37 16° WNW visible
